Location: Newark
(37.9717°N, 99.9089°W)
Time: 17:14:03
(UTC+00:00)

Hubble Space Telescope - Visible Passes

Search period start: 18 August 2019 00:00
Search period end: 28 August 2019 00:00
Orbit: 536 x 540 km, 28.5° (Epoch: 17 August)

Date Brightness Start Highest point End Pass type
(mag) Time Alt. Az. Time Alt. Az. Time Alt. Az.
18 Aug 2.3 02:59:28 10° SW 03:02:34 21° S 03:02:51 21° S visible
19 Aug 2.4 02:48:55 10° SW 02:51:56 20° S 02:52:47 18° S visible
20 Aug 2.6 02:38:26 10° SW 02:41:18 18° S 02:42:43 16° SSE visible
21 Aug 2.8 02:28:00 10° SW 02:30:38 17° SSW 02:32:38 12° SSE visible
22 Aug 2.9 02:17:40 10° SW 02:19:59 15° SSW 02:22:19 10° SSE visible
23 Aug 3.1 02:07:28 10° SW 02:09:20 13° SSW 02:11:11 10° S visible
24 Aug 3.3 01:57:39 10° SSW 01:58:39 11° SSW 01:59:41 10° S visible
